Location: Newark
(35.8833°N, 14.5000°E)
Time: 21:42:47
(UTC+00:00)

Hubble Space Telescope - Visible Passes

Search period start: 18 March 2019 00:00
Search period end: 28 March 2019 00:00
Orbit: 537 x 540 km, 28.5° (Epoch: 17 March)

Date Brightness Start Highest point End Pass type
(mag) Time Alt. Az. Time Alt. Az. Time Alt. Az.
23 Mar 3.0 18:50:25 10° SSW 18:51:35 13° S 18:51:35 13° S visible
24 Mar 2.6 18:39:26 10° SSW 18:42:01 18° SSE 18:42:01 18° SSE visible
25 Mar 2.3 18:28:35 10° SW 18:31:39 20° SSE 18:32:24 19° SSE visible
26 Mar 2.3 18:17:49 10° SW 18:21:05 23° SSE 18:22:42 18° SE visible
27 Mar 2.2 18:07:08 10° SW 18:10:31 25° S 18:12:57 15° SE visible
27 Mar 3.5 19:47:42 10° WSW 19:48:18 13° WSW 19:48:18 13° WSW visible
